Terminal Aerodrome Forecast
Issued by NWS

Home | Current Version | Previous Version | Text Only | Print | Product List | Glossary On
Versions: 1 2 3 4 5 6 7 8 9 10 11 12 13 14 15 16 17 18 19 20
000
FTUS46 KSEW 252300
TAFHQM
TAF
KHQM 252327Z 2600/2624 29007KT P6SM SCT030 OVC060
     FM260300 07002KT P6SM BKN030
     FM260900 08004KT 4SM BR OVC015
     FM261600 08003KT P6SM OVC010=

USA.gov is the U.S. government's official web portal to all federal, state and local government web resources and services.